Location: 10033 Water Well
(34.0865°N, 106.8959°W)
Time: 16:34:30
(UTC+00:00)

Helios 1A Rocket - Pass Details

Date: 13 January 2026
Orbit: 426 x 436 km, 98.3° (Epoch: 11 February)

Event Time Altitude Azimuth Distance (km) Brightness Sun altitude
Exits shadow 01:24:28 25° 79° (ENE) 933 3.4 -13.5°
Maximum altitude 01:25:05 26° 98° (E) 891 3.4 -13.6°
Drops below altitude 10° 01:27:54 10° 158° (SSE) 1,531 5.0 -14.2°
Sets 01:30:05 0° 171° (S) 2,389 6.2 -14.6°
